This is the latest recevied weather packets stored in our database for station/object K7NDG. If no packets are shown the sender has not sent any weather packets the latest 10 day(s).
| Time | Temp. | Humidity | Pressure | Rain* | Wind** | Luminosity | Snow |
|---|---|---|---|---|---|---|---|
| 1777477433 | 7.22° C | 91% | 1026.5 hPa | 0 mm | - | 462 W/m² | - |
| 1777477130 | 7.22° C | 91% | 1026.4 hPa | 0 mm | - | 356 W/m² | - |
| 1777476827 | 6.67° C | 92% | 1026.7 hPa | 0 mm | - | 155 W/m² | - |
| 1777476524 | 6.67° C | 92% | 1026.9 hPa | 0 mm | - | 138 W/m² | - |
| 1777476220 | 6.67° C | 92% | 1026.5 hPa | 0 mm | - | 138 W/m² | - |
| 1777475916 | 6.67° C | 93% | 1026.6 hPa | 0 mm | - | 201 W/m² | - |
| 1777475612 | 6.11° C | 93% | 1026.6 hPa | 0 mm | - | 111 W/m² | - |
| 1777475309 | 6.11° C | 93% | 1026.8 hPa | 0 mm | - | 102 W/m² | - |
| 1777475004 | 5.56° C | 93% | 1026.7 hPa | 0 mm | - | 94 W/m² | - |
| 1777474701 | 5.56° C | 93% | 1026.6 hPa | 0 mm | - | 94 W/m² | - |
| 1777474397 | 5° C | 93% | 1026.5 hPa | 0 mm | - | 94 W/m² | - |
| 1777474094 | 5° C | 93% | 1026.7 hPa | 0 mm | - | 72 W/m² | - |
| 1777473792 | 5° C | 93% | 1026.6 hPa | 0 mm | - | 77 W/m² | - |
| 1777473488 | 5° C | 93% | 1026.6 hPa | 0 mm | - | 71 W/m² | - |
| 1777473184 | 5° C | 93% | 1026.6 hPa | 0 mm | - | 64 W/m² | - |
| 1777472881 | 4.44° C | 93% | 1026.6 hPa | 0 mm | - | 62 W/m² | - |
| 1777472577 | 4.44° C | 93% | 1026.4 hPa | 0 mm | - | 64 W/m² | - |
| 1777472274 | 3.89° C | 93% | 1026.5 hPa | 0 mm | - | 49 W/m² | - |
| 1777471970 | 3.89° C | 92% | 1026.6 hPa | 0 mm | - | 43 W/m² | - |
| 1777471667 | 3.89° C | 92% | 1026.4 hPa | 0 mm | - | 38 W/m² | - |
| 1777471363 | 3.89° C | 92% | 1026.5 hPa | 0 mm | - | 31 W/m² | - |
| 1777471060 | 3.89° C | 92% | 1026.5 hPa | 0 mm | - | 26 W/m² | - |
| 1777470756 | 3.89° C | 91% | 1026.3 hPa | 0 mm | - | 23 W/m² | - |
| 1777470453 | 3.89° C | 91% | 1026.2 hPa | 0 mm | - | 22 W/m² | - |
| 1777470150 | 3.89° C | 91% | 1026.2 hPa | 0 mm | - | 18 W/m² | - |
* Rain latest hour (hover to see other rain measurements)
** Current wind speed in m/s (hover to see current wind gust speed)